sat.trackr.live / text

‹ back to catalog

JILIN-1 KUANFU-01B

NORAD 49003 · 2021-061A

PAYLOAD ACTIVE UNKNOWN

§ Identity

Operator
Country
PRC
Launch date
2021-07-03
Launch site
TAISC
Launch vehicle
Mass (kg)
RCS (m²)

External: N2YO · Heavens-Above · Gunter

§ Orbital elements

Epoch: 2026-05-25T04:15:14.341248Z

Period
95.37 min
Inclination
97.5204°
Eccentricity
0.0008724
Mean motion
15.09874018 rev/d
Perigee alt
530.6 km
Apogee alt
542.6 km
Semi-major
6,914.7 km
B*
1.5304e-4
RAAN
221.7954°
Arg perigee
140.8853°
Mean anomaly
219.3009°
Rev number
26,987

§ Raw data

JILIN-1 KUANFU-01B1 49003U 21061A   26145.17724932  .00002416  00000+0  15304-3 0  99972 49003  97.5204 221.7954 0008724 140.8853 219.3009 15.09874018269874

JSON: /api/v1/satellites/49003 · /tle

For live sub-satellite position, see the globe view (requires WebGL).

§ Visibility from observer

Set your observer location to see the next 7 days of passes ≥ 10°. The values pass through the URL so the page stays shareable.

No JS? Fill the form by hand. The geolocation button needs JavaScript.